| time (UTC) | temp C | wind direction | speed KPH | gust KPH | rain 1hr cm | rain 24hr cm | rain mn cm | humidity % | barometer mb |
| 20260831170330 | 23 | 360 | 12.9 | 25.7 | 0.00 | 0.00 | 0.00 | 64 | 1021.4 |
| 20260831165832 | 23 | 300 | 11.3 | 27.4 | 0.00 | 0.00 | 0.00 | 64 | 1021.5 |
| 20260831165329 | 23 | 360 | 16.1 | 30.6 | 0.00 | 0.00 | 0.00 | 63 | 1021.2 |
| 20260831164833 | 23 | 351 | 19.3 | 30.6 | 0.00 | 0.00 | 0.00 | 62 | 1021.2 |
| 20260831164329 | 23 | 346 | 14.5 | 32.2 | 0.00 | 0.00 | 0.00 | 62 | 1021.4 |
| 20260831163850 | 23 | 346 | 20.9 | 35.4 | 0.00 | 0.00 | 0.00 | 61 | 1021.2 |
| 20260831163353 | 23 | 355 | 16.1 | 35.4 | 0.00 | 0.00 | 0.00 | 61 | 1021.2 |
| 20260831162827 | 23 | 360 | 14.5 | 32.2 | 0.00 | 0.00 | 0.00 | 60 | 1021.2 |
| 20260831162326 | 23 | 329 | 14.5 | 32.2 | 0.00 | 0.00 | 0.00 | 60 | 1021.4 |
| 20260831161822 | 23 | 35 | 17.7 | 35.4 | 0.00 | 0.00 | 0.00 | 59 | 1021.4 |
| 20260831161319 | 24 | 337 | 16.1 | 33.8 | 0.00 | 0.00 | 0.00 | 60 | 1021.4 |
| 20260831160823 | 23 | 323 | 16.1 | 37.0 | 0.00 | 0.00 | 0.00 | 61 | 1021.5 |
| 20260831160340 | 24 | 360 | 20.9 | 35.4 | 0.00 | 0.00 | 0.00 | 59 | 1021.4 |
| 20260831155820 | 24 | 360 | 17.7 | 33.8 | 0.00 | 0.00 | 0.00 | 59 | 1021.5 |
| 20260831155316 | 24 | 18 | 19.3 | 41.8 | 0.00 | 0.00 | 0.00 | 58 | 1021.5 |
| 20260831154818 | 24 | 39 | 19.3 | 41.8 | 0.00 | 0.00 | 0.00 | 59 | 1021.4 |
| 20260831154341 | 24 | 348 | 20.9 | 37.0 | 0.00 | 0.00 | 0.00 | 59 | 1021.4 |
| 20260831153815 | 24 | 336 | 12.9 | 37.0 | 0.00 | 0.00 | 0.00 | 60 | 1021.5 |
| 20260831153319 | 24 | 360 | 20.9 | 37.0 | 0.00 | 0.00 | 0.00 | 58 | 1021.4 |
| 20260831152815 | 24 | 334 | 17.7 | 43.5 | 0.00 | 0.00 | 0.00 | 59 | 1021.4 |
| 20260831152339 | 24 | 360 | 17.7 | 33.8 | 0.00 | 0.00 | 0.00 | 60 | 1021.4 |
| 20260831151813 | 24 | 59 | 19.3 | 33.8 | 0.00 | 0.00 | 0.00 | 59 | 1021.4 |
| 20260831151329 | 24 | 56 | 17.7 | 38.6 | 0.00 | 0.00 | 0.00 | 59 | 1021.5 |
| 20260831150831 | 24 | 355 | 17.7 | 38.6 | 0.00 | 0.00 | 0.00 | 59 | 1021.5 |
| 20260831150328 | 24 | 360 | 19.3 | 40.2 | 0.00 | 0.00 | 0.00 | 58 | 1021.6 |
| 20260831145831 | 24 | 360 | 20.9 | 40.2 | 0.00 | 0.00 | 0.00 | 58 | 1021.6 |
| 20260831145327 | 24 | 348 | 22.5 | 40.2 | 0.00 | 0.00 | 0.00 | 58 | 1021.6 |
| 20260831144830 | 24 | 360 | 24.1 | 40.2 | 0.00 | 0.00 | 0.00 | 59 | 1021.5 |
| 20260831144327 | 24 | 360 | 19.3 | 45.1 | 0.00 | 0.00 | 0.00 | 59 | 1021.5 |
| 20260831143825 | 24 | 22 | 20.9 | 46.7 | 0.00 | 0.00 | 0.00 | 60 | 1021.7 |
| 20260831143326 | 24 | 360 | 22.5 | 35.4 | 0.00 | 0.00 | 0.00 | 59 | 1021.8 |
| 20260831142824 | 24 | 69 | 19.3 | 41.8 | 0.00 | 0.00 | 0.00 | 60 | 1021.7 |
| 20260831142328 | 24 | 355 | 22.5 | 45.1 | 0.00 | 0.00 | 0.00 | 60 | 1021.8 |
| 20260831141822 | 24 | 9 | 24.1 | 45.1 | 0.00 | 0.00 | 0.00 | 61 | 1021.8 |
| 20260831141326 | 25 | 333 | 20.9 | 37.0 | 0.00 | 0.00 | 0.00 | 61 | 1021.9 |
| 20260831140822 | 25 | 335 | 19.3 | 37.0 | 0.00 | 0.00 | 0.00 | 60 | 1021.9 |
| 20260831140321 | 25 | 339 | 17.7 | 43.5 | 0.00 | 0.00 | 0.00 | 58 | 1021.9 |
| 20260831135824 | 25 | 315 | 14.5 | 43.5 | 0.00 | 0.00 | 0.00 | 58 | 1021.7 |
| 20260831135320 | 25 | 73 | 17.7 | 32.2 | 0.00 | 0.00 | 0.00 | 57 | 1021.7 |
| 20260831134844 | 25 | 360 | 20.9 | 30.6 | 0.00 | 0.00 | 0.00 | 55 | 1021.7 |
| 20260831134325 | 25 | 322 | 16.1 | 27.4 | 0.00 | 0.00 | 0.00 | 57 | 1021.8 |
| 20260831133822 | 25 | 360 | 16.1 | 37.0 | 0.00 | 0.00 | 0.00 | 58 | 1021.9 |
| 20260831133319 | 25 | 355 | 16.1 | 37.0 | 0.00 | 0.00 | 0.00 | 60 | 1022.0 |
| 20260831132822 | 25 | 60 | 14.5 | 29.0 | 0.00 | 0.00 | 0.00 | 61 | 1022.0 |
| 20260831132318 | 25 | 322 | 9.7 | 38.6 | 0.00 | 0.00 | 0.00 | 63 | 1022.1 |
| 20260831131820 | 25 | 355 | 22.5 | 38.6 | 0.00 | 0.00 | 0.00 | 62 | 1021.9 |
| 20260831131316 | 25 | 360 | 12.9 | 40.2 | 0.00 | 0.00 | 0.00 | 63 | 1022.0 |
| 20260831130841 | 25 | 28 | 20.9 | 40.2 | 0.00 | 0.00 | 0.00 | 63 | 1022.0 |
| 20260831130315 | 25 | 315 | 17.7 | 32.2 | 0.00 | 0.00 | 0.00 | 64 | 1022.2 |
| 20260831125817 | 25 | 347 | 14.5 | 30.6 | 0.00 | 0.00 | 0.00 | 64 | 1022.2 |
| 20260831125314 | 25 | 78 | 12.9 | 32.2 | 0.00 | 0.00 | 0.00 | 65 | 1022.2 |
| 20260831124837 | 25 | 321 | 12.9 | 32.2 | 0.00 | 0.00 | 0.00 | 65 | 1022.4 |
| 20260831124329 | 25 | 350 | 14.5 | 30.6 | 0.00 | 0.00 | 0.00 | 64 | 1022.4 |
| 20260831123832 | 25 | 360 | 17.7 | 35.4 | 0.00 | 0.00 | 0.00 | 65 | 1022.5 |
| 20260831123327 | 24 | 333 | 22.5 | 35.4 | 0.00 | 0.00 | 0.00 | 65 | 1022.4 |
| 20260831122824 | 25 | 324 | 12.9 | 30.6 | 0.00 | 0.00 | 0.00 | 63 | 1022.4 |
| 20260831122348 | 25 | 70 | 14.5 | 27.4 | 0.00 | 0.00 | 0.00 | 62 | 1022.5 |
| 20260831121823 | 25 | 312 | 16.1 | 27.4 | 0.00 | 0.00 | 0.00 | 63 | 1022.4 |
| 20260831121324 | 25 | 319 | 12.9 | 27.4 | 0.00 | 0.00 | 0.00 | 64 | 1022.6 |
| 20260831120827 | 25 | 306 | 6.4 | 30.6 | 0.00 | 0.00 | 0.00 | 63 | 1022.6 |
| 20260831120323 | 25 | 331 | 8.0 | 32.2 | 0.00 | 0.00 | 0.00 | 64 | 1022.5 |
| 20260831115827 | 25 | 55 | 11.3 | 32.2 | 0.00 | 0.00 | 0.00 | 65 | 1022.6 |
| 20260831115323 | 25 | 78 | 9.7 | 25.7 | 0.00 | 0.00 | 0.00 | 64 | 1022.6 |
| 20260831114818 | 25 | 305 | 9.7 | 25.7 | 0.00 | 0.00 | 0.00 | 60 | 1022.5 |
| 20260831114322 | 25 | 70 | 12.9 | 25.7 | 0.00 | 0.00 | 0.00 | 58 | 1022.7 |
| 20260831113839 | 25 | 316 | 9.7 | 27.4 | 0.00 | 0.00 | 0.00 | 60 | 1022.6 |
| 20260831113322 | 25 | 350 | 14.5 | 27.4 | 0.00 | 0.00 | 0.00 | 60 | 1022.6 |
| 20260831112819 | 25 | 45 | 6.4 | 22.5 | 0.00 | 0.00 | 0.00 | 61 | 1022.7 |
| 20260831112342 | 25 | 60 | 8.0 | 22.5 | 0.00 | 0.00 | 0.00 | 61 | 1022.8 |
| 20260831111816 | 24 | 360 | 8.0 | 29.0 | 0.00 | 0.00 | 0.00 | 61 | 1022.9 |
| 20260831111313 | 24 | 318 | 9.7 | 29.0 | 0.00 | 0.00 | 0.00 | 61 | 1022.9 |
| 20260831110817 | 24 | 41 | 14.5 | 24.1 | 0.00 | 0.00 | 0.00 | 62 | 1022.9 |
| 20260831110340 | 24 | 333 | 9.7 | 22.5 | 0.00 | 0.00 | 0.00 | 61 | 1023.0 |
| 20260831105829 | 24 | 104 | 12.9 | 22.5 | 0.00 | 0.00 | 0.00 | 62 | 1023.0 |
| 20260831105320 | 23 | 106 | 6.4 | 22.5 | 0.00 | 0.00 | 0.00 | 63 | 1022.9 |
| 20260831104831 | 23 | 42 | 11.3 | 24.1 | 0.00 | 0.00 | 0.00 | 64 | 1023.0 |
| 20260831104334 | 23 | 68 | 9.7 | 25.7 | 0.00 | 0.00 | 0.00 | 64 | 1022.9 |
| 20260831103822 | 23 | 86 | 9.7 | 25.7 | 0.00 | 0.00 | 0.00 | 64 | 1022.9 |
| 20260831103329 | 23 | 72 | 8.0 | 20.9 | 0.00 | 0.00 | 0.00 | 64 | 1023.0 |
| 20260831102834 | 23 | 80 | 11.3 | 24.1 | 0.00 | 0.00 | 0.00 | 65 | 1023.1 |
| 20260831101826 | 23 | 336 | 6.4 | 22.5 | 0.00 | 0.00 | 0.00 | 66 | 1023.0 |
| 20260831101322 | 23 | 360 | 8.0 | 22.5 | 0.00 | 0.00 | 0.00 | 66 | 1023.1 |
| 20260831100900 | 23 | 341 | 8.0 | 22.5 | 0.00 | 0.00 | 0.00 | 66 | 1023.1 |
| 20260831100315 | 23 | 347 | 9.7 | 24.1 | 0.00 | 0.00 | 0.00 | 68 | 1023.1 |
| 20260831095836 | 22 | 332 | 11.3 | 27.4 | 0.00 | 0.00 | 0.00 | 68 | 1023.0 |
| 20260831095353 | 22 | 33 | 11.3 | 27.4 | 0.00 | 0.00 | 0.00 | 68 | 1023.0 |
| 20260831094848 | 22 | 42 | 8.0 | 22.5 | 0.00 | 0.00 | 0.00 | 69 | 1023.0 |
| 20260831094329 | 22 | 53 | 12.9 | 24.1 | 0.00 | 0.00 | 0.00 | 69 | 1023.0 |
| 20260831093826 | 22 | 34 | 12.9 | 29.0 | 0.00 | 0.00 | 0.00 | 71 | 1023.0 |
| 20260831093350 | 22 | 343 | 14.5 | 29.0 | 0.00 | 0.00 | 0.00 | 71 | 1023.0 |
| 20260831092824 | 22 | 22 | 11.3 | 30.6 | 0.00 | 0.00 | 0.00 | 72 | 1023.1 |
| 20260831092328 | 22 | 311 | 16.1 | 32.2 | 0.00 | 0.00 | 0.00 | 72 | 1023.0 |
| 20260831091839 | 21 | 334 | 16.1 | 32.2 | 0.00 | 0.00 | 0.00 | 72 | 1022.9 |
| 20260831091330 | 21 | 331 | 12.9 | 22.5 | 0.00 | 0.00 | 0.00 | 73 | 1023.0 |
| 20260831090827 | 21 | 50 | 4.8 | 17.7 | 0.00 | 0.00 | 0.00 | 74 | 1023.0 |
| 20260831090329 | 21 | 62 | 8.0 | 20.9 | 0.00 | 0.00 | 0.00 | 74 | 1023.1 |
| 20260831085824 | 21 | 360 | 11.3 | 20.9 | 0.00 | 0.00 | 0.00 | 75 | 1023.0 |
| 20260831085327 | 21 | 90 | 3.2 | 14.5 | 0.00 | 0.00 | 0.00 | 76 | 1023.1 |
| 20260831084820 | 21 | 311 | 1.6 | 19.3 | 0.00 | 0.00 | 0.00 | 76 | 1023.0 |
| 20260831084315 | 21 | 34 | 8.0 | 24.1 | 0.00 | 0.00 | 0.00 | 76 | 1022.9 |
| 20260831083819 | 21 | 355 | 12.9 | 24.1 | 0.00 | 0.00 | 0.00 | 77 | 1022.9 |
| 20260831083315 | 20 | 51 | 9.7 | 24.1 | 0.00 | 0.00 | 0.00 | 77 | 1022.9 |
| 20260831082839 | 20 | 76 | 9.7 | 19.3 | 0.00 | 0.00 | 0.00 | 78 | 1023.0 |
| 20260831082315 | 20 | 65 | 9.7 | 25.7 | 0.00 | 0.00 | 0.00 | 78 | 1022.9 |
| 20260831081832 | 20 | 40 | 11.3 | 25.7 | 0.00 | 0.00 | 0.00 | 79 | 1023.0 |
| 20260831081335 | 20 | 57 | 11.3 | 24.1 | 0.00 | 0.00 | 0.00 | 79 | 1022.9 |
| 20260831080831 | 20 | 360 | 11.3 | 24.1 | 0.00 | 0.00 | 0.00 | 80 | 1022.9 |
| 20260831080330 | 20 | 101 | 11.3 | 22.5 | 0.00 | 0.00 | 0.00 | 80 | 1022.9 |
| 20260831075830 | 20 | 42 | 9.7 | 22.5 | 0.00 | 0.00 | 0.00 | 81 | 1023.0 |
| 20260831075328 | 20 | 45 | 4.8 | 24.1 | 0.00 | 0.00 | 0.00 | 81 | 1022.9 |
| 20260831074825 | 20 | 61 | 11.3 | 24.1 | 0.00 | 0.00 | 0.00 | 81 | 1022.9 |
| 20260831074320 | 20 | 64 | 4.8 | 12.9 | 0.00 | 0.00 | 0.00 | 82 | 1022.9 |
| 20260831073817 | 19 | 344 | 4.8 | 20.9 | 0.00 | 0.00 | 0.00 | 82 | 1022.9 |
| 20260831073341 | 19 | 360 | 9.7 | 19.3 | 0.00 | 0.00 | 0.00 | 82 | 1022.9 |
| 20260831072844 | 19 | 42 | 4.8 | 16.1 | 0.00 | 0.00 | 0.00 | 82 | 1022.8 |
| 20260831072314 | 19 | 34 | 3.2 | 20.9 | 0.00 | 0.00 | 0.00 | 83 | 1022.7 |
| 20260831071817 | 19 | 98 | 9.7 | 24.1 | 0.00 | 0.00 | 0.00 | 83 | 1022.6 |
| 20260831071314 | 19 | 40 | 8.0 | 24.1 | 0.00 | 0.00 | 0.00 | 83 | 1022.6 |
| 20260831070838 | 18 | 49 | 11.3 | 22.5 | 0.00 | 0.00 | 0.00 | 83 | 1022.5 |
| 20260831070334 | 18 | 310 | 6.4 | 17.7 | 0.00 | 0.00 | 0.00 | 83 | 1022.3 |
| 20260831065830 | 18 | 54 | 4.8 | 19.3 | 0.00 | 0.00 | 0.00 | 83 | 1022.4 |
| 20260831065319 | 18 | 341 | 8.0 | 19.3 | 0.00 | 0.00 | 0.00 | 84 | 1022.3 |
| 20260831064821 | 18 | 48 | 4.8 | 22.5 | 0.00 | 0.00 | 0.00 | 84 | 1022.3 |
| 20260831064314 | 18 | 355 | 8.0 | 22.5 | 0.00 | 0.00 | 0.00 | 84 | 1022.2 |
| 20260831063852 | 18 | 44 | 11.3 | 22.5 | 0.00 | 0.00 | 0.00 | 84 | 1022.3 |
| 20260831063332 | 18 | 69 | 6.4 | 14.5 | 0.00 | 0.00 | 0.00 | 84 | 1022.3 |
| 20260831062829 | 18 | 104 | 4.8 | 16.1 | 0.00 | 0.00 | 0.00 | 84 | 1022.2 |
| 20260831062335 | 18 | 340 | 4.8 | 19.3 | 0.00 | 0.00 | 0.00 | 84 | 1022.2 |
| 20260831061829 | 18 | 42 | 6.4 | 19.3 | 0.00 | 0.00 | 0.00 | 84 | 1022.3 |
| 20260831061331 | 18 | 338 | 6.4 | 14.5 | 0.00 | 0.00 | 0.00 | 84 | 1022.2 |
| 20260831060827 | 18 | 360 | 3.2 | 11.3 | 0.00 | 0.00 | 0.00 | 84 | 1022.2 |
| 20260831060323 | 18 | 117 | 3.2 | 14.5 | 0.00 | 0.00 | 0.00 | 84 | 1022.1 |
| 20260831055825 | 18 | 348 | 4.8 | 14.5 | 0.00 | 0.00 | 0.00 | 84 | 1022.1 |
| 20260831055348 | 18 | 347 | 4.8 | 14.5 | 0.00 | 0.00 | 0.00 | 84 | 1022.1 |
| 20260831054829 | 18 | 98 | 8.0 | 14.5 | 0.00 | 0.00 | 0.00 | 84 | 1022.1 |
| 20260831054344 | 18 | 305 | 4.8 | 12.9 | 0.00 | 0.00 | 0.00 | 83 | 1022.3 |
| 20260831053828 | 18 | 350 | 3.2 | 16.1 | 0.00 | 0.00 | 0.00 | 83 | 1022.2 |
| 20260831053351 | 18 | 78 | 4.8 | 19.3 | 0.00 | 0.00 | 0.00 | 83 | 1022.2 |
| 20260831052826 | 18 | 122 | 6.4 | 14.5 | 0.00 | 0.00 | 0.00 | 83 | 1022.2 |
| 20260831052320 | 18 | 42 | 4.8 | 16.1 | 0.00 | 0.00 | 0.00 | 83 | 1022.2 |
| 20260831051821 | 18 | 82 | 3.2 | 20.9 | 0.00 | 0.00 | 0.00 | 83 | 1022.2 |
| 20260831051334 | 18 | 67 | 4.8 | 20.9 | 0.00 | 0.00 | 0.00 | 83 | 1022.1 |
| 20260831050816 | 18 | 66 | 6.4 | 22.5 | 0.00 | 0.00 | 0.00 | 83 | 1022.0 |
| 20260831050332 | 18 | 42 | 6.4 | 22.5 | 0.00 | 0.00 | 0.00 | 83 | 1022.2 |
| 20260831045814 | 18 | 332 | 4.8 | 17.7 | 0.00 | 0.00 | 0.00 | 83 | 1022.2 |
| 20260831045357 | 18 | 46 | 6.4 | 17.7 | 0.00 | 0.00 | 0.00 | 83 | 1022.2 |
| 20260831044813 | 18 | 46 | 6.4 | 17.7 | 0.00 | 0.00 | 0.00 | 83 | 1022.2 |
| 20260831044337 | 18 | 31 | 8.0 | 19.3 | 0.00 | 0.00 | 0.00 | 83 | 1022.3 |
| 20260831043837 | 18 | 105 | 9.7 | 19.3 | 0.00 | 0.00 | 0.00 | 83 | 1022.3 |
| 20260831043312 | 18 | 63 | 6.4 | 19.3 | 0.00 | 0.00 | 0.00 | 83 | 1022.3 |
| 20260831042829 | 18 | 30 | 9.7 | 19.3 | 0.00 | 0.00 | 0.00 | 83 | 1022.3 |
| 20260831042326 | 18 | 72 | 6.4 | 19.3 | 0.00 | 0.00 | 0.00 | 83 | 1022.4 |
| 20260831041828 | 18 | 32 | 8.0 | 19.3 | 0.00 | 0.00 | 0.00 | 83 | 1022.4 |
| 20260831041344 | 18 | 57 | 4.8 | 20.9 | 0.00 | 0.00 | 0.00 | 83 | 1022.3 |
| 20260831040826 | 18 | 36 | 4.8 | 19.3 | 0.00 | 0.00 | 0.00 | 83 | 1022.4 |
| 20260831040323 | 18 | 49 | 8.0 | 19.3 | 0.00 | 0.00 | 0.00 | 83 | 1022.4 |
| 20260831035824 | 18 | 53 | 6.4 | 24.1 | 0.00 | 0.00 | 0.00 | 84 | 1022.3 |
| 20260831035340 | 18 | 329 | 11.3 | 24.1 | 0.00 | 0.00 | 0.00 | 84 | 1022.3 |
| 20260831034822 | 18 | 34 | 11.3 | 20.9 | 0.00 | 0.00 | 0.00 | 84 | 1022.4 |
| 20260831034318 | 18 | 63 | 4.8 | 16.1 | 0.00 | 0.00 | 0.00 | 84 | 1022.5 |
| 20260831033818 | 18 | 46 | 6.4 | 16.1 | 0.00 | 0.00 | 0.00 | 84 | 1022.5 |
| 20260831033315 | 18 | 348 | 6.4 | 12.9 | 0.00 | 0.00 | 0.00 | 84 | 1022.5 |
| 20260831032816 | 18 | 47 | 4.8 | 11.3 | 0.00 | 0.00 | 0.00 | 84 | 1022.5 |
| 20260831032313 | 18 | 360 | 4.8 | 14.5 | 0.00 | 0.00 | 0.00 | 84 | 1022.6 |
| 20260831031836 | 18 | 58 | 3.2 | 16.1 | 0.00 | 0.00 | 0.00 | 83 | 1022.5 |
| 20260831031328 | 18 | 355 | 8.0 | 16.1 | 0.00 | 0.00 | 0.00 | 84 | 1022.6 |
| 20260831030831 | 18 | 314 | 1.6 | 12.9 | 0.00 | 0.00 | 0.00 | 83 | 1022.5 |
| 20260831030328 | 18 | 46 | 4.8 | 17.7 | 0.00 | 0.00 | 0.00 | 83 | 1022.6 |
| 20260831025829 | 18 | 43 | 3.2 | 14.5 | 0.00 | 0.00 | 0.00 | 83 | 1022.6 |
| 20260831025325 | 18 | 349 | 1.6 | 14.5 | 0.00 | 0.00 | 0.00 | 83 | 1022.7 |
| 20260831024850 | 18 | 92 | 1.6 | 8.0 | 0.00 | 0.00 | 0.00 | 83 | 1022.6 |
| 20260831024324 | 18 | 121 | 3.2 | 8.0 | 0.00 | 0.00 | 0.00 | 83 | 1022.6 |
| 20260831023824 | 18 | 66 | 4.8 | 9.7 | 0.00 | 0.00 | 0.00 | 83 | 1022.5 |
| 20260831023325 | 18 | 80 | 3.2 | 17.7 | 0.00 | 0.00 | 0.00 | 83 | 1022.6 |
| 20260831022820 | 18 | 59 | 6.4 | 19.3 | 0.00 | 0.00 | 0.00 | 83 | 1022.6 |
| 20260831022345 | 18 | 302 | 1.6 | 14.5 | 0.00 | 0.00 | 0.00 | 83 | 1022.5 |
| 20260831021820 | 18 | 42 | 3.2 | 16.1 | 0.00 | 0.00 | 0.00 | 83 | 1022.5 |
| 20260831021317 | 18 | 348 | 4.8 | 17.7 | 0.00 | 0.00 | 0.00 | 83 | 1022.6 |
| 20260831020812 | 18 | 43 | 4.8 | 17.7 | 0.00 | 0.00 | 0.00 | 83 | 1022.5 |
| 20260831020336 | 18 | 345 | 3.2 | 16.1 | 0.00 | 0.00 | 0.00 | 83 | 1022.5 |
| 20260831015831 | 18 | 355 | 9.7 | 16.1 | 0.00 | 0.00 | 0.00 | 83 | 1022.6 |
| 20260831015333 | 18 | 348 | 4.8 | 16.1 | 0.00 | 0.00 | 0.00 | 83 | 1022.6 |
| 20260831014830 | 19 | 81 | 4.8 | 12.9 | 0.00 | 0.00 | 0.00 | 83 | 1022.5 |
| 20260831014334 | 19 | 360 | 1.6 | 9.7 | 0.00 | 0.00 | 0.00 | 83 | 1022.5 |
| 20260831013831 | 19 | 118 | 3.2 | 12.9 | 0.00 | 0.00 | 0.00 | 83 | 1022.6 |
| 20260831013328 | 19 | 75 | 6.4 | 14.5 | 0.00 | 0.00 | 0.00 | 83 | 1022.6 |
| 20260831012848 | 19 | 319 | 4.8 | 14.5 | 0.00 | 0.00 | 0.00 | 83 | 1022.7 |
| 20260831012322 | 19 | 104 | 3.2 | 14.5 | 0.00 | 0.00 | 0.00 | 83 | 1022.7 |
| 20260831011845 | 19 | 82 | 1.6 | 14.5 | 0.00 | 0.00 | 0.00 | 83 | 1022.7 |
| 20260831011325 | 19 | 92 | 4.8 | 16.1 | 0.00 | 0.00 | 0.00 | 83 | 1022.8 |
| 20260831010819 | 19 | 338 | 9.7 | 25.7 | 0.00 | 0.00 | 0.00 | 83 | 1022.7 |
| 20260831010342 | 19 | 315 | 6.4 | 25.7 | 0.00 | 0.00 | 0.00 | 83 | 1022.6 |
| 20260831005820 | 19 | 33 | 9.7 | 29.0 | 0.00 | 0.00 | 0.00 | 83 | 1022.6 |
| 20260831005346 | 19 | 71 | 11.3 | 29.0 | 0.00 | 0.00 | 0.00 | 83 | 1022.4 |
| 20260831004818 | 19 | 360 | 8.0 | 24.1 | 0.00 | 0.00 | 0.00 | 83 | 1022.4 |
| 20260831004316 | 19 | 342 | 11.3 | 30.6 | 0.00 | 0.00 | 0.00 | 83 | 1022.6 |
| 20260831003814 | 19 | 82 | 14.5 | 29.0 | 0.00 | 0.00 | 0.00 | 83 | 1022.5 |
| 20260831003355 | 19 | 69 | 11.3 | 27.4 | 0.00 | 0.00 | 0.00 | 83 | 1022.4 |
| 20260831002851 | 19 | 30 | 12.9 | 30.6 | 0.00 | 0.00 | 0.00 | 83 | 1022.4 |
| 20260831002331 | 19 | 55 | 16.1 | 37.0 | 0.00 | 0.00 | 0.00 | 83 | 1022.5 |
| 20260831001853 | 19 | 103 | 11.3 | 37.0 | 0.00 | 0.00 | 0.00 | 83 | 1022.5 |
| 20260831001327 | 19 | 32 | 17.7 | 32.2 | 0.00 | 0.00 | 0.00 | 83 | 1022.3 |
| 20260831000823 | 19 | 44 | 16.1 | 33.8 | 0.00 | 0.00 | 0.00 | 83 | 1022.4 |
| 20260831000327 | 19 | 355 | 16.1 | 32.2 | 0.00 | 0.00 | 0.00 | 83 | 1022.4 |
| 20260830235819 | 19 | 63 | 19.3 | 32.2 | 0.00 | 0.00 | 0.00 | 83 | 1022.4 |
| 20260830235323 | 19 | 56 | 17.7 | 33.8 | 0.00 | 0.00 | 0.00 | 83 | 1022.5 |
| 20260830234818 | 19 | 360 | 14.5 | 33.8 | 0.00 | 0.00 | 0.00 | 83 | 1022.6 |
| 20260830234315 | 19 | 27 | 16.1 | 33.8 | 0.00 | 0.00 | 0.00 | 83 | 1022.6 |
| 20260830233839 | 19 | 334 | 19.3 | 29.0 | 0.00 | 0.00 | 0.00 | 83 | 1022.6 |
| 20260830233340 | 19 | 41 | 16.1 | 35.4 | 0.00 | 0.00 | 0.00 | 83 | 1022.7 |
| 20260830232829 | 19 | 54 | 19.3 | 35.4 | 0.00 | 0.00 | 0.00 | 83 | 1022.7 |
| 20260830232323 | 19 | 63 | 12.9 | 32.2 | 0.00 | 0.00 | 0.00 | 83 | 1022.5 |
| 20260830231825 | 19 | 360 | 17.7 | 32.2 | 0.00 | 0.00 | 0.00 | 83 | 1022.6 |
| 20260830231320 | 19 | 26 | 16.1 | 30.6 | 0.00 | 0.00 | 0.00 | 83 | 1022.6 |
| 20260830230818 | 20 | 80 | 16.1 | 37.0 | 0.00 | 0.00 | 0.00 | 83 | 1022.6 |
| 20260830230315 | 20 | 53 | 19.3 | 37.0 | 0.00 | 0.00 | 0.00 | 83 | 1022.4 |
| 20260830225836 | 20 | 39 | 17.7 | 37.0 | 0.00 | 0.00 | 0.00 | 83 | 1022.5 |
| 20260830225333 | 20 | 360 | 17.7 | 37.0 | 0.00 | 0.00 | 0.00 | 83 | 1022.5 |
| 20260830224816 | 20 | 72 | 19.3 | 37.0 | 0.00 | 0.00 | 0.00 | 83 | 1022.3 |
| 20260830224328 | 20 | 34 | 16.1 | 45.1 | 0.00 | 0.00 | 0.00 | 83 | 1022.3 |
| 20260830223829 | 20 | 360 | 22.5 | 45.1 | 0.00 | 0.00 | 0.00 | 83 | 1022.2 |
| 20260830223323 | 20 | 360 | 14.5 | 35.4 | 0.00 | 0.00 | 0.00 | 83 | 1022.4 |
| 20260830222827 | 20 | 77 | 19.3 | 35.4 | 0.00 | 0.00 | 0.00 | 83 | 1022.3 |
| 20260830222319 | 20 | 53 | 17.7 | 33.8 | 0.00 | 0.00 | 0.00 | 83 | 1022.2 |
| 20260830221819 | 20 | 338 | 16.1 | 38.6 | 0.00 | 0.00 | 0.00 | 83 | 1022.2 |
| 20260830221315 | 20 | 360 | 17.7 | 40.2 | 0.00 | 0.00 | 0.00 | 83 | 1022.1 |
| 20260830220817 | 20 | 360 | 17.7 | 37.0 | 0.00 | 0.00 | 0.00 | 83 | 1022.2 |
| 20260830220338 | 20 | 40 | 20.9 | 37.0 | 0.00 | 0.00 | 0.00 | 83 | 1022.2 |
| 20260830215812 | 20 | 332 | 19.3 | 37.0 | 0.00 | 0.00 | 0.00 | 83 | 1022.2 |
| 20260830215334 | 20 | 82 | 19.3 | 33.8 | 0.00 | 0.00 | 0.00 | 83 | 1022.2 |
| 20260830214859 | 20 | 52 | 17.7 | 33.8 | 0.00 | 0.00 | 0.00 | 82 | 1022.2 |
| 20260830214333 | 20 | 42 | 19.3 | 32.2 | 0.00 | 0.00 | 0.00 | 82 | 1022.1 |
| 20260830213828 | 20 | 355 | 17.7 | 33.8 | 0.00 | 0.00 | 0.00 | 82 | 1021.9 |
| 20260830213329 | 20 | 355 | 17.7 | 33.8 | 0.00 | 0.00 | 0.00 | 82 | 1022.0 |
| 20260830212825 | 20 | 58 | 19.3 | 37.0 | 0.00 | 0.00 | 0.00 | 82 | 1021.9 |
| 20260830212328 | 20 | 360 | 19.3 | 37.0 | 0.00 | 0.00 | 0.00 | 81 | 1021.9 |
| 20260830211825 | 20 | 59 | 14.5 | 41.8 | 0.00 | 0.00 | 0.00 | 81 | 1021.8 |
| 20260830211320 | 20 | 312 | 20.9 | 35.4 | 0.00 | 0.00 | 0.00 | 81 | 1021.9 |
| 20260830210843 | 20 | 38 | 17.7 | 40.2 | 0.00 | 0.00 | 0.00 | 81 | 1021.8 |
| 20260830210317 | 20 | 360 | 19.3 | 40.2 | 0.00 | 0.00 | 0.00 | 81 | 1021.9 |
| 20260830205820 | 20 | 38 | 16.1 | 32.2 | 0.00 | 0.00 | 0.00 | 81 | 1021.8 |
| 20260830205343 | 20 | 9 | 19.3 | 32.2 | 0.00 | 0.00 | 0.00 | 81 | 1021.8 |
| 20260830204820 | 20 | 360 | 16.1 | 32.2 | 0.00 | 0.00 | 0.00 | 81 | 1021.8 |
| 20260830204341 | 20 | 360 | 19.3 | 32.2 | 0.00 | 0.00 | 0.00 | 81 | 1021.9 |
| 20260830203815 | 20 | 42 | 16.1 | 35.4 | 0.00 | 0.00 | 0.00 | 80 | 1021.8 |
| 20260830203358 | 20 | 360 | 17.7 | 35.4 | 0.00 | 0.00 | 0.00 | 80 | 1021.7 |
| 20260830202830 | 20 | 80 | 17.7 | 33.8 | 0.00 | 0.00 | 0.00 | 80 | 1021.7 |
| 20260830202319 | 20 | 343 | 17.7 | 37.0 | 0.00 | 0.00 | 0.00 | 79 | 1021.6 |
| 20260830201837 | 21 | 53 | 17.7 | 37.0 | 0.00 | 0.00 | 0.00 | 79 | 1021.5 |
| 20260830201325 | 21 | 51 | 16.1 | 30.6 | 0.00 | 0.00 | 0.00 | 79 | 1021.6 |
| 20260830200858 | 21 | 37 | 17.7 | 33.8 | 0.00 | 0.00 | 0.00 | 78 | 1021.5 |
| 20260830200327 | 21 | 355 | 16.1 | 33.8 | 0.00 | 0.00 | 0.00 | 78 | 1021.6 |
| 20260830195824 | 21 | 360 | 19.3 | 33.8 | 0.00 | 0.00 | 0.00 | 78 | 1021.5 |
| 20260830195347 | 21 | 360 | 17.7 | 35.4 | 0.00 | 0.00 | 0.00 | 77 | 1021.5 |
| 20260830194813 | 21 | 319 | 16.1 | 43.5 | 0.00 | 0.00 | 0.00 | 77 | 1021.3 |
| 20260830194336 | 21 | 14 | 17.7 | 43.5 | 0.00 | 0.00 | 0.00 | 76 | 1021.3 |
| 20260830193830 | 21 | 65 | 16.1 | 32.2 | 0.00 | 0.00 | 0.00 | 76 | 1021.2 |
| 20260830193346 | 21 | 32 | 17.7 | 32.2 | 0.00 | 0.00 | 0.00 | 76 | 1021.1 |
| 20260830192821 | 21 | 360 | 19.3 | 32.2 | 0.00 | 0.00 | 0.00 | 76 | 1021.1 |
| 20260830192325 | 21 | 355 | 16.1 | 35.4 | 0.00 | 0.00 | 0.00 | 75 | 1021.0 |
| 20260830191842 | 21 | 61 | 17.7 | 35.4 | 0.00 | 0.00 | 0.00 | 75 | 1021.1 |
| 20260830191325 | 22 | 360 | 17.7 | 33.8 | 0.00 | 0.00 | 0.00 | 75 | 1021.2 |
| 20260830190822 | 22 | 355 | 14.5 | 32.2 | 0.00 | 0.00 | 0.00 | 74 | 1020.9 |
| 20260830190318 | 22 | 340 | 14.5 | 32.2 | 0.00 | 0.00 | 0.00 | 74 | 1021.0 |
| 20260830185819 | 22 | 360 | 12.9 | 25.7 | 0.00 | 0.00 | 0.00 | 74 | 1021.0 |
| 20260830185316 | 22 | 55 | 12.9 | 25.7 | 0.00 | 0.00 | 0.00 | 73 | 1021.0 |
| 20260830184820 | 22 | 106 | 11.3 | 29.0 | 0.00 | 0.00 | 0.00 | 73 | 1021.0 |
| 20260830184315 | 22 | 51 | 11.3 | 29.0 | 0.00 | 0.00 | 0.00 | 72 | 1021.0 |
| 20260830183818 | 23 | 44 | 12.9 | 27.4 | 0.00 | 0.00 | 0.00 | 72 | 1021.0 |
| 20260830183358 | 23 | 331 | 12.9 | 29.0 | 0.00 | 0.00 | 0.00 | 72 | 1021.0 |
| 20260830182839 | 23 | 42 | 11.3 | 30.6 | 0.00 | 0.00 | 0.00 | 72 | 1021.2 |
| 20260830182314 | 23 | 34 | 14.5 | 30.6 | 0.00 | 0.00 | 0.00 | 72 | 1021.1 |
| 20260830181858 | 23 | 46 | 16.1 | 32.2 | 0.00 | 0.00 | 0.00 | 72 | 1021.2 |
| 20260830181333 | 23 | 342 | 16.1 | 32.2 | 0.00 | 0.00 | 0.00 | 71 | 1021.0 |
| 20260830180830 | 23 | 48 | 17.7 | 32.2 | 0.00 | 0.00 | 0.00 | 70 | 1021.1 |
| 20260830180354 | 23 | 360 | 12.9 | 27.4 | 0.00 | 0.00 | 0.00 | 69 | 1021.1 |
| 20260830175837 | 23 | 326 | 16.1 | 27.4 | 0.00 | 0.00 | 0.00 | 69 | 1021.2 |
| 20260830175315 | 23 | 360 | 14.5 | 30.6 | 0.00 | 0.00 | 0.00 | 69 | 1021.1 |
| 20260830174831 | 23 | 360 | 17.7 | 30.6 | 0.00 | 0.00 | 0.00 | 68 | 1021.0 |
| 20260830174335 | 23 | 341 | 17.7 | 29.0 | 0.00 | 0.00 | 0.00 | 67 | 1021.1 |
| 20260830173859 | 24 | 355 | 14.5 | 33.8 | 0.00 | 0.00 | 0.00 | 67 | 1021.0 |
| 20260830173315 | 24 | 9 | 19.3 | 33.8 | 0.00 | 0.00 | 0.00 | 67 | 1021.1 |
| 20260830172858 | 24 | 42 | 14.5 | 29.0 | 0.00 | 0.00 | 0.00 | 68 | 1021.0 |
| 20260830172333 | 24 | 89 | 12.9 | 27.4 | 0.00 | 0.00 | 0.00 | 68 | 1021.1 |
| 20260830171835 | 24 | 360 | 14.5 | 35.4 | 0.00 | 0.00 | 0.00 | 68 | 1021.1 |
| 20260830171331 | 24 | 360 | 12.9 | 35.4 | 0.00 | 0.00 | 0.00 | 68 | 1021.0 |
| 20260830170827 | 24 | 360 | 17.7 | 33.8 | 0.00 | 0.00 | 0.00 | 68 | 1021.0 |